Location: Bannatyne
(13.0833°N, 59.5333°W)
Time: 06:43:10
(UTC+00:00)

Transit 2A - Pass Details

Date: 02 February 2020
Orbit: 599 x 959 km, 66.7° (Epoch: 27 February)

Event Time Altitude Azimuth Distance (km) Brightness Sun altitude
Rises 08:53:20 0° 316° (NW) 3,256 - -22.2°
Reaches altitude 10° 08:56:04 10° 303° (WNW) 2,391 - -21.6°
Maximum altitude 09:00:25 24° 251° (WSW) 1,705 - -20.6°
Exits shadow 09:01:32 22° 234° (SW) 1,781 7.5 -20.3°
Drops below altitude 10° 09:05:05 10° 199° (SSW) 2,568 8.6 -19.5°
Sets 09:08:10 0° 186° (S) 3,555 9.5 -18.7°
